Location: Asheville, NC
(35.6000°N, 82.5500°W)
Time: 02:27:53

AO-7 - Pass Details

Date: 10 March 2018
Orbit: 1440 x 1459 km, 101.7° (Epoch: 16 March)

Event Time Altitude Azimuth Distance (km) Brightness Sun altitude
Rises 02:29:00 0° 35° (NE) 4,541 ? -49.8°
Reaches altitude 10° 02:33:08 10° 54° (NE) 3,556 ? -49.2°
Maximum altitude 02:38:12 17° 93° (E) 3,011 ? -48.4°
Enters shadow 02:40:40 15° 114° (ESE) 3,147 ? -48.0°
